MVL2503 UHPP-UHMM

Flight info

Callsign MVL2503
Flight time 1h 11m
Altitude 38000
Route N0454F380 BAKEN A812 OSKET
Aircraft T154/M-SDFGRWY/S

Departure

Time 2026-04-28 20:22
Airport Yelizovo Airport (UHPP)

Arrival

Time 2026-04-28 21:33
Airport Sokol Airport (UHMM)
Time Latitude Longitude Altitude Speed Heading
2026-04-28 19:23 53.16878 158.42737 137 ft 0 kts 270°
2026-04-28 20:04 53.16878 158.42749 137 ft 2 kts 269°
2026-04-28 20:05 53.16878 158.42773 137 ft 2 kts 270°
2026-04-28 20:05 53.16878 158.42796 137 ft 2 kts 270°
2026-04-28 20:05 53.16878 158.42821 137 ft 2 kts 270°
2026-04-28 20:05 53.16877 158.42845 137 ft 2 kts 280°
2026-04-28 20:06 53.16871 158.42868 138 ft 2 kts 310°
2026-04-28 20:06 53.16863 158.42882 137 ft 0 kts 328°
2026-04-28 20:06 53.16857 158.42886 137 ft 0 kts 331°
2026-04-28 20:12 53.16860 158.42883 137 ft 0 kts 331°
2026-04-28 20:12 53.16878 158.42868 137 ft 6 kts 330°
2026-04-28 20:12 53.16927 158.42822 137 ft 9 kts 332°
2026-04-28 20:12 53.16997 158.42784 137 ft 11 kts 356°
2026-04-28 20:13 53.17052 158.42871 137 ft 12 kts 62°
2026-04-28 20:13 53.17099 158.43010 137 ft 14 kts 59°
2026-04-28 20:13 53.17156 158.43170 137 ft 17 kts 59°
2026-04-28 20:13 53.17219 158.43350 137 ft 18 kts 59°
2026-04-28 20:14 53.17289 158.43552 137 ft 21 kts 59°
2026-04-28 20:14 53.17365 158.43768 137 ft 22 kts 59°
2026-04-28 20:14 53.17443 158.43991 137 ft 19 kts 62°
2026-04-28 20:14 53.17491 158.44171 137 ft 14 kts 68°
2026-04-28 20:15 53.17517 158.44299 137 ft 9 kts 89°
2026-04-28 20:15 53.17471 158.44385 137 ft 11 kts 150°
2026-04-28 20:15 53.17394 158.44443 137 ft 13 kts 157°
2026-04-28 20:15 53.17300 158.44507 137 ft 15 kts 158°
2026-04-28 20:16 53.17190 158.44583 137 ft 18 kts 157°
2026-04-28 20:16 53.17075 158.44663 137 ft 20 kts 156°
2026-04-28 20:16 53.16935 158.44759 137 ft 22 kts 157°
2026-04-28 20:16 53.16789 158.44859 137 ft 23 kts 157°
2026-04-28 20:17 53.16633 158.44968 137 ft 25 kts 156°
2026-04-28 20:17 53.16466 158.45084 137 ft 27 kts 157°
2026-04-28 20:17 53.16286 158.45207 137 ft 29 kts 156°
2026-04-28 20:17 53.16116 158.45326 137 ft 14 kts 157°
2026-04-28 20:18 53.16069 158.45438 137 ft 13 kts 71°
2026-04-28 20:18 53.16093 158.45537 137 ft 8 kts 77°
2026-04-28 20:18 53.16070 158.45659 137 ft 10 kts 148°
2026-04-28 20:18 53.15998 158.45718 137 ft 12 kts 158°
2026-04-28 20:19 53.15911 158.45776 137 ft 14 kts 158°
2026-04-28 20:19 53.15807 158.45847 137 ft 17 kts 157°
2026-04-28 20:19 53.15687 158.45905 137 ft 18 kts 179°
2026-04-28 20:19 53.15580 158.45934 137 ft 10 kts 122°
2026-04-28 20:20 53.15611 158.45973 137 ft 5 kts 338°
2026-04-28 20:20 53.15651 158.45955 137 ft 6 kts 339°
2026-04-28 20:20 53.15682 158.45935 137 ft 0 kts 337°
2026-04-28 20:21 53.15684 158.45934 137 ft 5 kts 337°
2026-04-28 20:21 53.15974 158.45735 138 ft 84 kts 337°
2026-04-28 20:21 53.16732 158.45212 138 ft 151 kts 335°
2026-04-28 20:21 53.17804 158.44463 605 ft 173 kts 337°
2026-04-28 20:22 53.18927 158.43666 1224 ft 186 kts 337°
2026-04-28 20:22 53.20181 158.42790 1787 ft 206 kts 338°
2026-04-28 20:22 53.21564 158.41843 2504 ft 225 kts 338°
2026-04-28 20:22 53.23021 158.40854 3501 ft 232 kts 339°
2026-04-28 20:23 53.24541 158.39822 4323 ft 247 kts 339°
2026-04-28 20:23 53.26142 158.38730 5371 ft 252 kts 339°
2026-04-28 20:23 53.27748 158.37613 6355 ft 258 kts 338°
2026-04-28 20:23 53.29399 158.36429 7340 ft 264 kts 337°
2026-04-28 20:24 53.31070 158.35159 8373 ft 268 kts 335°
2026-04-28 20:24 53.32721 158.33797 9417 ft 269 kts 332°
2026-04-28 20:24 53.34368 158.32307 10284 ft 278 kts 331°
2026-04-28 20:24 53.36033 158.30518 10791 ft 300 kts 323°
2026-04-28 20:25 53.37735 158.28401 11607 ft 311 kts 322°
2026-04-28 20:25 53.39446 158.26152 12714 ft 312 kts 320°
2026-04-28 20:25 53.41100 158.23894 13599 ft 319 kts 319°
2026-04-28 20:25 53.42826 158.21329 14057 ft 339 kts 313°
2026-04-28 20:26 53.44400 158.18314 14752 ft 349 kts 307°
2026-04-28 20:26 53.45810 158.15149 16205 ft 337 kts 303°
2026-04-28 20:26 53.47116 158.11986 17310 ft 334 kts 301°
2026-04-28 20:26 53.48414 158.08713 18149 ft 340 kts 300°
2026-04-28 20:27 53.49704 158.05415 18925 ft 347 kts 300°
2026-04-28 20:27 53.51037 158.01997 19691 ft 354 kts 301°
2026-04-28 20:27 53.52668 157.98923 20606 ft 364 kts 317°
2026-04-28 20:27 53.54899 157.96759 21436 ft 379 kts 335°
2026-04-28 20:28 53.57501 157.95813 22122 ft 398 kts 352°
2026-04-28 20:28 53.60324 157.96217 22796 ft 417 kts
2026-04-28 20:28 53.63141 157.97400 23358 ft 428 kts
2026-04-28 20:28 53.66058 157.98230 24184 ft 423 kts 358°
2026-04-28 20:29 53.68970 157.97978 24775 ft 419 kts 341°
2026-04-28 20:29 53.71635 157.96344 25503 ft 410 kts 325°
2026-04-28 20:29 53.73907 157.93591 26143 ft 406 kts 314°
2026-04-28 20:29 53.76133 157.90514 26823 ft 414 kts 317°
2026-04-28 20:30 53.78455 157.87697 27449 ft 423 kts 321°
2026-04-28 20:30 53.80924 157.85034 28146 ft 430 kts 323°
2026-04-28 20:30 53.83507 157.82399 28759 ft 436 kts 324°
2026-04-28 20:30 53.86105 157.79822 29374 ft 443 kts 324°
2026-04-28 20:31 53.88770 157.77205 29996 ft 448 kts 324°
2026-04-28 20:31 53.91465 157.74561 30555 ft 453 kts 324°
2026-04-28 20:31 53.94198 157.71883 31230 ft 455 kts 325°
2026-04-28 20:31 53.96903 157.69232 32045 ft 453 kts 325°
2026-04-28 20:32 53.99612 157.66569 32748 ft 454 kts 326°
2026-04-28 20:32 54.02336 157.63887 33489 ft 452 kts 327°
2026-04-28 20:32 54.05034 157.61226 34104 ft 453 kts 327°
2026-04-28 20:32 54.07765 157.58527 34735 ft 453 kts 327°
2026-04-28 20:33 54.10464 157.55853 35291 ft 454 kts 327°
2026-04-28 20:33 54.13200 157.53163 35850 ft 454 kts 328°
2026-04-28 20:33 54.15902 157.50520 36391 ft 454 kts 328°
2026-04-28 20:33 54.18619 157.47853 36835 ft 456 kts 328°
2026-04-28 20:34 54.21341 157.45169 37295 ft 456 kts 328°
2026-04-28 20:34 54.24092 157.42447 37632 ft 461 kts 328°
2026-04-28 20:34 54.26871 157.39688 37705 ft 469 kts 328°
2026-04-28 20:35 54.32573 157.34015 37736 ft 483 kts 328°
2026-04-28 20:35 54.38285 157.28299 37730 ft 476 kts 327°
2026-04-28 20:36 54.43917 157.22655 37731 ft 473 kts 327°
2026-04-28 20:36 54.49556 157.16989 37735 ft 474 kts 327°
2026-04-28 20:37 54.55203 157.11302 37738 ft 476 kts 327°
2026-04-28 20:37 54.60847 157.05602 37737 ft 476 kts 327°
2026-04-28 20:38 54.66508 156.99863 37738 ft 477 kts 327°
2026-04-28 20:38 54.72155 156.94124 37739 ft 477 kts 327°
2026-04-28 20:39 54.77806 156.88362 37730 ft 470 kts 328°
2026-04-28 20:39 54.83360 156.82680 37731 ft 466 kts 327°
2026-04-28 20:40 54.88893 156.76999 37734 ft 465 kts 327°
2026-04-28 20:40 54.94437 156.71291 37744 ft 468 kts 328°
2026-04-28 20:41 55.00043 156.65501 37741 ft 469 kts 327°
2026-04-28 20:41 55.05604 156.59726 37745 ft 472 kts 327°
2026-04-28 20:42 55.11206 156.53893 37722 ft 472 kts 327°
2026-04-28 20:42 55.16781 156.48106 37742 ft 471 kts 327°
2026-04-28 20:43 55.22374 156.42276 37744 ft 472 kts 327°
2026-04-28 20:43 55.27452 156.36955 37745 ft 473 kts 327°
2026-04-28 20:44 55.32089 156.32069 37726 ft 473 kts 327°
2026-04-28 20:44 55.39003 156.24747 37730 ft 473 kts 327°
2026-04-28 20:45 55.44493 156.18904 37743 ft 477 kts 327°
2026-04-28 20:45 55.50100 156.12907 37743 ft 480 kts 327°
2026-04-28 20:46 55.55739 156.06862 37743 ft 481 kts 326°
2026-04-28 20:46 55.61400 156.00772 37744 ft 482 kts 326°
2026-04-28 20:47 55.67060 155.94663 37744 ft 483 kts 326°
2026-04-28 20:47 55.72743 155.88507 37740 ft 483 kts 326°
2026-04-28 20:48 55.78449 155.82306 37742 ft 483 kts 326°
2026-04-28 20:48 55.84169 155.76067 37742 ft 483 kts 325°
2026-04-28 20:49 55.89854 155.69844 37740 ft 483 kts 326°
2026-04-28 20:49 55.95575 155.63560 37741 ft 484 kts 327°
2026-04-28 20:50 56.01255 155.57300 37741 ft 484 kts 327°
2026-04-28 20:50 56.06975 155.50972 37742 ft 484 kts 327°
2026-04-28 20:51 56.12689 155.44641 37724 ft 484 kts 328°
2026-04-28 20:51 56.18359 155.38358 37738 ft 484 kts 327°
2026-04-28 20:52 56.24113 155.32045 37734 ft 484 kts 327°
2026-04-28 20:52 56.29805 155.25787 37740 ft 484 kts 327°
2026-04-28 20:53 56.38425 155.16277 37739 ft 484 kts 327°
2026-04-28 20:53 56.44103 155.09985 37843 ft 482 kts 327°
2026-04-28 20:54 56.49820 155.03628 37827 ft 483 kts 327°
2026-04-28 20:54 56.55545 154.97241 37825 ft 484 kts 327°
2026-04-28 20:55 56.61222 154.90883 37823 ft 484 kts 328°
2026-04-28 20:55 56.66880 154.84525 37825 ft 484 kts 327°
2026-04-28 20:56 56.72586 154.78088 37826 ft 484 kts 327°
2026-04-28 20:56 56.78314 154.71605 37826 ft 484 kts 327°
2026-04-28 20:57 56.83973 154.65175 37824 ft 484 kts 328°
2026-04-28 20:57 56.89733 154.58607 37824 ft 485 kts 327°
2026-04-28 20:58 56.95424 154.52095 37825 ft 485 kts 328°
2026-04-28 20:58 57.01117 154.45557 37835 ft 485 kts 328°
2026-04-28 20:59 57.06792 154.39014 37902 ft 484 kts 328°
2026-04-28 20:59 57.12488 154.32426 37863 ft 485 kts 327°
2026-04-28 21:00 57.18156 154.25848 37877 ft 485 kts 327°
2026-04-28 21:00 57.23814 154.19209 37886 ft 485 kts 327°
2026-04-28 21:01 57.29476 154.12466 37883 ft 486 kts 327°
2026-04-28 21:01 57.35125 154.05725 37881 ft 486 kts 327°
2026-04-28 21:02 57.40797 153.98936 37882 ft 486 kts 327°
2026-04-28 21:02 57.46484 153.92105 37872 ft 487 kts 327°
2026-04-28 21:03 57.52076 153.85364 37857 ft 487 kts 327°
2026-04-28 21:03 57.57811 153.78422 37851 ft 487 kts 327°
2026-04-28 21:04 57.63455 153.71567 37851 ft 487 kts 327°
2026-04-28 21:04 57.69068 153.64723 37852 ft 487 kts 327°
2026-04-28 21:05 57.74717 153.57809 37852 ft 487 kts 327°
2026-04-28 21:05 57.80365 153.50870 37851 ft 487 kts 327°
2026-04-28 21:06 57.86028 153.43919 37850 ft 487 kts 327°
2026-04-28 21:06 57.91673 153.36972 37851 ft 487 kts 327°
2026-04-28 21:07 57.97302 153.29994 37863 ft 486 kts 326°
2026-04-28 21:07 58.02911 153.23012 37855 ft 485 kts 326°
2026-04-28 21:08 58.08530 153.16008 37851 ft 484 kts 326°
2026-04-28 21:08 58.14128 153.09030 37875 ft 484 kts 327°
2026-04-28 21:09 58.16893 153.05579 37609 ft 477 kts 327°
2026-04-28 21:09 58.19645 153.02125 37105 ft 472 kts 326°
2026-04-28 21:09 58.22257 152.98674 36678 ft 468 kts 324°
2026-04-28 21:09 58.24925 152.95062 36217 ft 464 kts 324°
2026-04-28 21:10 58.27535 152.91527 35758 ft 462 kts 325°
2026-04-28 21:10 58.30146 152.88013 35310 ft 459 kts 325°
2026-04-28 21:10 58.32721 152.84555 34879 ft 457 kts 325°
2026-04-28 21:10 58.35328 152.81053 34452 ft 455 kts 325°
2026-04-28 21:11 58.37868 152.77635 34044 ft 453 kts 325°
2026-04-28 21:11 58.40370 152.74266 33651 ft 450 kts 325°
2026-04-28 21:11 58.42849 152.70920 33261 ft 448 kts 325°
2026-04-28 21:11 58.45365 152.67516 32869 ft 446 kts 325°
2026-04-28 21:12 58.47893 152.64092 32479 ft 444 kts 325°
2026-04-28 21:12 58.50404 152.60684 32090 ft 442 kts 325°
2026-04-28 21:12 58.52881 152.57314 31688 ft 440 kts 325°
2026-04-28 21:12 58.55368 152.53926 31290 ft 438 kts 325°
2026-04-28 21:13 58.57789 152.50624 30910 ft 436 kts 326°
2026-04-28 21:13 58.60307 152.47325 30544 ft 433 kts 327°
2026-04-28 21:13 58.62810 152.44163 30165 ft 431 kts 328°
2026-04-28 21:13 58.65279 152.41043 29788 ft 429 kts 328°
2026-04-28 21:14 58.67722 152.37930 29420 ft 427 kts 327°
2026-04-28 21:14 58.70022 152.34984 29018 ft 426 kts 326°
2026-04-28 21:14 58.72367 152.31959 28481 ft 429 kts 326°
2026-04-28 21:14 58.75019 152.28520 27896 ft 430 kts 326°
2026-04-28 21:15 58.77533 152.25247 27366 ft 430 kts 326°
2026-04-28 21:15 58.79996 152.22034 26865 ft 430 kts 326°
2026-04-28 21:15 58.82406 152.18887 26390 ft 428 kts 326°
2026-04-28 21:15 58.84682 152.15913 25949 ft 427 kts 326°
2026-04-28 21:16 58.87218 152.12593 25467 ft 425 kts 327°
2026-04-28 21:16 58.89643 152.09419 25013 ft 422 kts 327°
2026-04-28 21:16 58.92061 152.06247 24563 ft 420 kts 327°
2026-04-28 21:16 58.94444 152.03116 24068 ft 419 kts 327°
2026-04-28 21:17 58.96870 151.99922 23484 ft 419 kts 327°
2026-04-28 21:17 58.99239 151.96797 22870 ft 420 kts 327°
2026-04-28 21:17 59.01651 151.93613 22256 ft 416 kts 327°
2026-04-28 21:17 59.03976 151.90533 21569 ft 400 kts 327°
2026-04-28 21:18 59.06225 151.87550 20867 ft 387 kts 327°
2026-04-28 21:18 59.08411 151.84647 20159 ft 375 kts 327°
2026-04-28 21:18 59.10537 151.81825 19444 ft 365 kts 327°
2026-04-28 21:18 59.12602 151.79125 18629 ft 360 kts 327°
2026-04-28 21:19 59.14656 151.76440 17811 ft 354 kts 327°
2026-04-28 21:19 59.16662 151.73805 17008 ft 349 kts 327°
2026-04-28 21:19 59.18643 151.71193 16212 ft 343 kts 327°
2026-04-28 21:19 59.20603 151.68597 15421 ft 337 kts 327°
2026-04-28 21:20 59.22503 151.66077 14653 ft 332 kts 327°
2026-04-28 21:20 59.24399 151.63559 13882 ft 327 kts 327°
2026-04-28 21:20 59.26235 151.61116 13138 ft 324 kts 327°
2026-04-28 21:20 59.28123 151.58603 12593 ft 326 kts 327°
2026-04-28 21:21 59.29951 151.56163 12304 ft 321 kts 327°
2026-04-28 21:21 59.31784 151.53714 12000 ft 317 kts 327°
2026-04-28 21:21 59.33579 151.51302 11692 ft 313 kts 327°
2026-04-28 21:21 59.35358 151.48900 11380 ft 309 kts 327°
2026-04-28 21:22 59.37128 151.46507 11182 ft 301 kts 327°
2026-04-28 21:22 59.38822 151.44214 11028 ft 293 kts 327°
2026-04-28 21:22 59.40486 151.41959 10849 ft 287 kts 327°
2026-04-28 21:22 59.42107 151.39761 10621 ft 283 kts 327°
2026-04-28 21:23 59.43707 151.37590 10311 ft 283 kts 327°
2026-04-28 21:23 59.45316 151.35405 10006 ft 282 kts 327°
2026-04-28 21:23 59.46942 151.33186 9679 ft 281 kts 326°
2026-04-28 21:23 59.48539 151.30995 9351 ft 281 kts 326°
2026-04-28 21:24 59.50127 151.28818 9074 ft 278 kts 326°
2026-04-28 21:24 59.51695 151.26674 8857 ft 274 kts 326°
2026-04-28 21:24 59.53255 151.24545 8619 ft 271 kts 326°
2026-04-28 21:24 59.54789 151.22446 8370 ft 268 kts 326°
2026-04-28 21:25 59.56320 151.20351 8118 ft 266 kts 326°
2026-04-28 21:25 59.57826 151.18285 7866 ft 263 kts 326°
2026-04-28 21:25 59.59322 151.16231 7613 ft 261 kts 326°
2026-04-28 21:25 59.60796 151.14206 7361 ft 259 kts 326°
2026-04-28 21:26 59.62328 151.12445 7176 ft 253 kts 334°
2026-04-28 21:26 59.63910 151.10939 6936 ft 251 kts 335°
2026-04-28 21:26 59.65481 151.09474 6680 ft 250 kts 335°
2026-04-28 21:26 59.67043 151.08020 6459 ft 247 kts 335°
2026-04-28 21:27 59.68595 151.06575 6277 ft 243 kts 335°
2026-04-28 21:27 59.70103 151.05170 6082 ft 240 kts 335°
2026-04-28 21:27 59.71608 151.03766 5882 ft 237 kts 335°
2026-04-28 21:27 59.73078 151.02394 5711 ft 233 kts 335°
2026-04-28 21:28 59.74489 151.00972 5553 ft 229 kts 332°
2026-04-28 21:28 59.75876 150.99437 5361 ft 226 kts 332°
2026-04-28 21:28 59.77198 150.97960 5397 ft 204 kts 332°
2026-04-28 21:28 59.78362 150.96642 5335 ft 188 kts 331°
2026-04-28 21:29 59.79455 150.95334 5085 ft 176 kts 329°
2026-04-28 21:29 59.80452 150.94055 4800 ft 166 kts 328°
2026-04-28 21:29 59.81396 150.92830 4533 ft 165 kts 328°
2026-04-28 21:29 59.82372 150.91559 4279 ft 169 kts 328°
2026-04-28 21:30 59.83335 150.90231 4065 ft 166 kts 324°
2026-04-28 21:30 59.84217 150.88814 3864 ft 163 kts 322°
2026-04-28 21:30 59.85084 150.87370 3659 ft 160 kts 321°
2026-04-28 21:30 59.85925 150.85928 3441 ft 160 kts 320°
2026-04-28 21:31 59.86727 150.84474 3190 ft 151 kts 318°
2026-04-28 21:31 59.87466 150.83049 2873 ft 148 kts 317°
2026-04-28 21:31 59.88237 150.81697 2434 ft 150 kts 321°
2026-04-28 21:31 59.89058 150.80449 2021 ft 149 kts 323°
2026-04-28 21:32 59.89871 150.79189 1586 ft 150 kts 321°
2026-04-28 21:32 59.90629 150.77786 1171 ft 147 kts 308°
2026-04-28 21:32 59.90990 150.75957 788 ft 144 kts 274°
2026-04-28 21:32 59.91037 150.74068 600 ft 130 kts 273°
2026-04-28 21:33 59.91082 150.72508 596 ft 93 kts 272°
2026-04-28 21:33 59.91114 150.71460 596 ft 61 kts 274°
2026-04-28 21:33 59.91129 150.70844 596 ft 28 kts 274°
2026-04-28 21:33 59.91141 150.70479 596 ft 21 kts 274°
2026-04-28 21:34 59.91149 150.70270 596 ft 5 kts 275°
2026-04-28 21:34 59.91150 150.70259 596 ft 0 kts 275°
2026-04-28 21:34 59.91150 150.70258 596 ft 0 kts 275°
2026-04-28 21:35 59.91150 150.70252 596 ft 0 kts 275°
2026-04-28 21:35 59.91150 150.70244 596 ft 1 kts 275°
2026-04-28 21:35 59.91153 150.70186 595 ft 4 kts 283°
2026-04-28 21:35 59.91167 150.70140 596 ft 3 kts 291°
2026-04-28 21:36 59.91152 150.70122 596 ft 3 kts 149°
2026-04-28 21:36 59.91144 150.70203 595 ft 9 kts 95°
2026-04-28 21:36 59.91141 150.70364 596 ft 13 kts 92°
2026-04-28 21:36 59.91137 150.70560 596 ft 15 kts 94°
2026-04-28 21:37 59.91130 150.70784 596 ft 17 kts 93°
2026-04-28 21:37 59.91124 150.71030 596 ft 19 kts 93°
2026-04-28 21:37 59.91118 150.71294 596 ft 21 kts 93°
2026-04-28 21:37 59.91109 150.71597 596 ft 22 kts 93°
2026-04-28 21:38 59.91100 150.71912 596 ft 23 kts 93°
2026-04-28 21:38 59.91092 150.72232 596 ft 21 kts 92°
2026-04-28 21:38 59.91085 150.72484 596 ft 16 kts 94°
2026-04-28 21:38 59.91087 150.72627 595 ft 7 kts 60°
2026-04-28 21:39 59.91130 150.72664 596 ft 7 kts
2026-04-28 21:39 59.91181 150.72672 596 ft 7 kts
2026-04-28 21:39 59.91237 150.72678 596 ft 8 kts
2026-04-28 21:39 59.91285 150.72647 596 ft 7 kts 301°
2026-04-28 21:40 59.91297 150.72568 595 ft 3 kts 302°
2026-04-28 21:40 59.91317 150.72551 596 ft 2 kts 357°
2026-04-28 21:40 59.91333 150.72549 596 ft 2 kts
2026-04-28 21:40 59.91342 150.72551 596 ft 0 kts